Location: Theydon Bois
(51.6750°N, 0.1050°E)
Time: 13:37:56
(UTC+01:00)

Daily predictions for brighter satellites

Satellite Brightness Start Highest point End
(mag) Time Altitude Azimuth Time Altitude Azimuth Time Altitude Azimuth
Cosmos 1633 2.5 21:16:10 10° S 21:19:42 69° E 21:23:14 10° NNE
Cosmos 724 4.3 21:14:45 10° SW 21:20:33 87° SE 21:26:28 10° NE
CZ-2C R/B 3.7 21:18:05 10° NNE 21:22:48 72° ESE 21:27:23 10° S
Cosmos 1346 Rocket 3.2 21:19:24 10° SSW 21:23:21 69° WNW 21:27:22 10° N
Intercosmos 25 4.4 21:18:53 10° N 21:24:39 45° ENE 21:28:28 10° SE
Cosmos 389 Rocket 3.2 21:23:57 10° N 21:27:09 35° ENE 21:30:20 10° SE
Cosmos 1500 Rocket 3.6 21:25:14 10° S 21:29:29 59° E 21:33:45 10° NNE
Gbstr 26 Del rocket 4.4 21:26:40 10° W 21:29:39 22° SW 21:32:35 10° SSE
Cosmos 1862 4.1 21:26:42 10° SSE 21:30:21 34° E 21:34:02 10° NNE
Cosmos 1812 3.4 21:26:53 10° N 21:30:31 38° ENE 21:34:08 10° SE
Sich 1 4.2 21:27:19 10° SE 21:30:58 26° E 21:34:39 10° NNE
Cosmos 2251 Rocket 3.8 21:26:44 10° S 21:31:42 45° ESE 21:36:44 10° NE
USA 234 3.5 21:27:11 10° SE 21:33:40 64° SW 21:40:11 10° WNW
Cosmos 1697 Rocket 3.5 21:29:08 10° NNW 21:34:28 41° NE 21:39:45 10° ESE
MetOp-B 4.2 21:30:14 10° SSE 21:35:35 77° ENE 21:40:58 10° NNW
IRIDIUM 104 4.4 21:34:41 10° SSE 21:39:49 60° E 21:44:58 10° N
Cosmos 1727 Rocket 4.1 21:33:30 10° N 21:39:53 89° W 21:46:16 10° S
Cosmos 2228 Rocket 3.1 21:35:49 10° N 21:40:19 89° WSW 21:44:45 10° S
Cosmos 1833 Rocket 4.0 21:36:50 10° SE 21:40:49 20° E 21:44:49 10° NE
ATLAS 5 CENTAUR R/B 2.4 21:36:23 10° NW 21:41:51 78° NE 21:48:07 11° SE
BREEZE M DEB (TANK) 4.5 21:40:59 10° WSW 21:46:07 72° SSE 22:10:04 10° E
IGS 5A 3.5 21:43:16 10° SSE 21:47:22 71° ENE 21:51:31 10° N
IRIDIUM 114 4.3 21:43:46 10° S 21:48:57 72° E 21:54:10 10° N
Cosmos 1441 Rocket 3.9 21:46:39 10° SSE 21:50:09 35° E 21:53:38 10° NNE
Resurs 01 Rocket 2.4 21:46:54 10° S 21:51:12 52° W 21:55:33 10° NNW
Meteor 2-6 Rocket 4.2 21:46:05 10° NNW 21:51:33 84° W 21:57:05 10° S
Cosmos 1805 Rocket 3.8 21:47:25 10° S 21:51:42 51° E 21:56:02 10° NNE
COSMOS 2406 3.9 21:47:05 10° S 21:52:13 34° ESE 21:57:20 10° NE
Landsat 7 3.8 21:50:44 10° SSE 21:55:30 84° ENE 22:00:18 10° NNW
Meteor 1-10 Rocket 4.3 21:51:22 10° NNW 21:57:00 90° W 22:02:43 10° S
IRIDIUM 103 4.3 21:52:51 10° S 21:58:05 84° E 22:03:20 10° N
Lacrosse 5 2.9 21:54:37 10° WNW 21:59:30 46° N 22:04:24 10° ENE
Meteor 1-27 Rocket 3.9 21:55:08 10° N 22:00:59 66° ENE 22:06:27 12° SSE
Meteor 1-4 Rocket 3.5 21:58:36 10° N 22:01:49 31° ENE 22:04:03 16° SE
Cosmos 1782 4.4 21:58:22 10° NNW 22:02:02 34° W 22:05:40 10° SSW
Cosmos 1818 3.8 21:57:11 10° NW 22:02:40 67° NE 22:07:21 14° SE
SL-16 R/B 4.1 22:03:02 10° NNW 22:07:16 21° NNE 22:11:28 10° E
Cosmos 2369 4.0 22:01:58 10° NNW 22:07:40 60° NE 22:12:22 15° SE
Cosmos 1656 3.7 22:02:13 10° NNW 22:07:42 81° WSW 22:12:31 14° SSE
Cosmos 1934 Rocket 4.3 22:07:45 10° SSE 22:13:46 50° E 22:19:53 10° NNE
SL-8 R/B 4.1 22:10:31 10° W 22:15:09 46° SSW 22:18:33 17° SE
GP-B 3.3 22:11:15 10° N 22:15:39 57° E 22:19:11 15° SSE
Cosmos 1633 Rocket 3.6 22:13:53 16° SSE 22:17:05 40° E 22:21:14 10° NNE
Cosmos 1821 Rocket 3.9 22:11:42 10° S 22:17:48 81° E 22:24:02 10° NNE
Cosmos 2278 4.2 22:13:28 10° NNW 22:19:04 52° NE 22:23:28 16° SE
Cosmos 1707 Rocket 3.5 22:16:02 10° N 22:20:27 86° E 22:23:56 16° S
Cosmos 2082 Rocket 3.3 22:19:46 17° SE 22:22:49 26° ESE 22:27:25 10° NE
ERBS 2.5 22:19:44 10° SW 22:22:55 43° SE 22:26:06 10° ENE
Cosmos 2322 Rocket 4.0 22:28:58 10° NNW 22:33:32 24° NE 22:38:05 10° E
Cosmos 2123 Rocket 4.0 22:27:17 10° N 22:33:32 83° E 22:38:34 17° SSE
SPOT 5 2.6 22:31:08 19° SSE 22:34:16 89° WSW 22:38:38 10° NNW
Cosmos 1470 Rocket 4.3 22:32:29 21° SE 22:34:43 35° E 22:38:45 10° NNE
Cosmos 614 Rocket 3.9 22:30:21 10° S 22:35:26 66° ESE 22:40:37 10° NNE
Cosmos 1535 Rocket 4.5 22:33:22 12° S 22:39:01 70° E 22:45:08 10° NNE
Okean 1-7 4.4 22:35:30 10° N 22:39:13 26° ENE 22:41:19 18° ESE
SPOT 1/Viking Rocket 4.2 22:34:45 11° S 22:39:35 53° W 22:44:44 10° NNW
USA 267 3.5 22:33:04 10° ENE 22:39:38 75° NNW 22:46:11 10° WSW
ERS-1 Rocket 3.1 22:36:07 16° S 22:40:08 72° WSW 22:45:11 10° NNW
Terra 1.8 22:41:06 21° SSE 22:44:17 84° ENE 22:49:05 10° NNW
Cosmos 1190 Rocket 4.2 22:41:27 16° S 22:45:25 50° ESE 22:50:33 10° NNE
Cosmos 1862 Rocket 3.6 22:41:34 10° N 22:46:06 80° E 22:48:46 24° SSE
Cosmos 1238 Rocket 3.0 22:49:56 32° ESE 22:50:33 36° E 22:53:22 10° NNE
Cosmos 1605 Rocket 4.1 22:46:16 19° SSE 22:50:41 59° E 22:56:41 10° NNE
Cosmos 2360 Rocket 4.2 22:46:54 10° NNW 22:51:06 21° NNE 22:55:17 10° E
Cosmos 407 Rocket 3.5 22:48:16 11° SSW 22:53:24 69° ESE 22:58:41 10° NNE
Cosmos 405 Rocket 3.6 22:55:23 27° ESE 22:56:05 29° E 22:59:21 10° NNE
Cosmos 1980 Rocket 2.2 22:54:48 10° NNW 23:00:32 84° ENE 23:03:53 26° SSE
USA 32 4.0 22:57:33 19° S 23:01:20 84° E 23:06:36 10° N
Cosmos 1867 4.5 23:00:26 25° SE 23:01:44 28° ESE 23:06:20 10° ENE
Meteor 1-25 Rocket 4.3 22:59:26 23° SSE 23:02:51 60° E 23:08:21 10° NNE
ATLAS 5 CENTAUR R/B 2.6 23:01:13 10° NW 23:03:28 39° NE 23:07:09 14° ESE
deb Kosmos-1763 4.5 23:06:51 37° SE 23:07:24 40° ESE 23:10:50 10° NE
Sich 1 4.3 23:04:17 10° SW 23:08:27 40° WNW 23:12:41 10° N
Cosmos 2242 Rocket 3.6 23:04:37 10° N 23:09:07 70° ENE 23:11:04 32° SSE
SAR-Lupe-2 4.4 23:07:16 10° N 23:10:47 50° WNW 23:13:34 15° SW
Meteor 2-4 Rocket 4.4 23:05:18 10° N 23:10:51 44° ENE 23:13:49 24° SE
Cosmos 921 Rocket 3.0 23:06:40 10° NNW 23:10:57 67° ENE 23:12:40 34° SE
Geosat 4.0 23:08:21 28° SSE 23:11:04 79° WSW 23:16:09 10° NNW
Genesis I 3.2 23:09:38 10° NW 23:13:32 73° NE 23:15:02 35° ESE
Thor Agena Rocket 4.5 23:09:14 10° NE 23:13:42 30° E 23:15:09 26° SE
Cosmos 1933 Rocket 3.6 23:14:33 33° SSE 23:16:22 62° E 23:20:45 10° NNE
Cosmos 1666 Rocket 4.4 23:13:01 12° SSW 23:16:55 47° WNW 23:21:08 10° N
Cosmos 1697 Rocket 3.4 23:13:12 10° NW 23:18:30 44° WSW 23:21:41 22° S
ALOS 2 3.9 23:20:23 21° ESE 23:22:16 29° ENE 23:26:04 10° N
Cosmos 1833 Rocket 2.7 23:18:28 10° SSW 23:24:06 81° WNW 23:29:46 10° NNE
Cosmos 1153 Rocket 4.5 23:21:13 26° S 23:24:44 68° E 23:30:51 10° NNE
Cosmos 1869 Rocket 4.4 23:24:33 30° ESE 23:25:33 33° E 23:29:33 10° NNE
ATLAS 5 CENTAUR R/B 3.6 23:21:23 10° WNW 23:26:18 29° WSW 23:29:39 19° SSW
Cosmos 1763 Rocket 3.8 23:22:38 10° NNW 23:27:56 60° ENE 23:30:31 29° SE
JB-3 4.3 23:24:38 10° NNE 23:28:35 82° WNW 23:30:21 32° SSW
USA 238 DEB 4.1 23:28:21 28° SSE 23:31:06 40° ESE 23:37:25 10° NE
USA 238 4.1 23:28:30 28° SSE 23:31:13 40° ESE 23:37:31 10° NE
Okean 1 3.3 23:27:25 10° NNW 23:31:27 75° W 23:32:48 40° S
Spot 4 4.0 23:30:23 34° SE 23:32:22 65° ENE 23:37:09 10° N
SWAS 4.4 23:30:11 23° SSW 23:32:49 88° ESE 23:37:11 10° NNE
Cosmos 1703 Rocket 3.5 23:28:29 10° N 23:32:54 87° E 23:34:26 40° SSE
Cosmos 1140 Rocket 3.6 23:28:31 14° SSW 23:33:01 77° WNW 23:38:19 10° NNE
Cosmos 1459 Rocket 4.4 23:32:04 29° SSE 23:34:57 50° E 23:41:02 10° NNE
COSMOS 2406 4.0 23:30:44 10° SW 23:36:21 52° NW 23:41:59 10° NNE
ATLAS 3B R/B 4.5 23:37:36 11° ESE 23:37:51 12° ESE 23:39:54 10° E
Cosmos 1515 3.6 23:35:10 10° NNW 23:39:02 87° W 23:39:59 50° S
Iridium 4 Rocket 3.3 23:38:02 39° SE 23:39:27 57° E 23:43:44 10° N
Cosmos 1184 Rocket 3.8 23:39:47 27° SW 23:41:06 42° WNW 23:44:17 10° N
Cosmos 676 Rocket 4.0 23:38:30 25° SSW 23:41:43 85° ESE 23:47:06 10° NNE
Lacrosse 5 2.2 23:38:00 10° WNW 23:43:04 65° NNE 23:46:55 17° ESE
SL-27 R/B 4.3 23:51:20 18° ENE 23:51:20 18° ENE 23:52:54 10° NE
SL-16 R/B 2.3 23:46:43 10° NNW 23:52:26 70° ENE 23:55:08 32° SE
Cosmos 1437 Rocket 2.9 23:52:08 10° NNW 23:55:58 62° W 23:56:44 49° SSW
